Wind_Speed
23 20 19 16 15 14 12 12 12 12 12 13 11 9 10 12 12 10 11 12 12 11 10 8 10 11 11 11 11 11 10 9 9 7 7 7 7 7 6 5 5 7 6 4 3 2 3 5 7 8 9 9
21 19 17 16 16 15 13 12 12 13 13 12 10 9 9 10 10 8 8 9 10 9 7 6 7 9 8 8 9 11 10 8 7 7 7 6 5 5 5 5 6 7 6 4 3 2 3 5 7 8 9 8
21 18 17 18 18 16 14 13 13 13 13 11 10 8 7 7 7 7 6 7 7 6 5 4 5 6 5 5 7 9 11 9 5 5 6 5 5 5 7 6 6 6 4 3 3 3 3 5 8 7 7 5
21 19 19 19 18 16 14 13 13 12 11 10 9 8 7 6 6 6 6 6 6 5 4 4 5 6 5 5 6 7 10 9 3 2 2 2 6 7 8 8 6 5 3 3 3 3 4 6 6 4 3 3
21 20 20 19 17 16 13 11 11 10 9 8 8 8 7 6 7 7 7 7 7 6 5 5 5 5 4 5 5 5 7 7 3 3 2 3 6 9 8 8 7 6 3 2 2 3 6 7 5 3 2 4
22 21 20 19 18 15 12 11 10 10 8 6 6 6 5 7 9 8 7 7 6 6 6 5 4 4 4 4 4 4 3 3 2 5 7 7 7 9 9 9 9 7 6 6 4 3 6 5 4 1 4 3
23 22 21 19 17 15 13 12 11 10 9 8 7 7 8 10 8 6 5 5 5 4 4 3 3 4 4 4 3 3 2 1 1 5 7 8 8 8 8 8 6 6 7 7 6 5 4 4 3 1 3 3
23 22 20 19 17 15 14 13 12 11 10 9 9 9 11 10 6 4 4 4 3 3 4 5 5 5 5 4 3 3 3 2 2 5 8 8 9 8 6 5 4 5 5 4 5 4 3 3 2 1 2 1
22 22 20 18 17 16 15 14 13 11 11 11 9 9 9 7 6 5 6 6 5 5 6 7 7 6 5 5 5 3 3 4 6 6 7 7 6 5 5 5 3 4 4 3 3 2 1 2 3 2 1 1
22 20 19 18 17 17 16 15 14 12 12 12 10 9 7 7 8 8 8 6 5 6 6 6 5 4 4 4 4 3 1 1 4 4 3 5 5 6 6 6 5 4 2 3 3 0 2 3 3 2 1 1
20 18 17 18 18 18 18 16 14 13 13 12 11 9 8 8 10 9 8 6 5 5 4 4 4 2 3 2 2 3 1 0 1 2 2 4 6 6 7 7 6 5 4 2 1 1 1 2 3 2 0 1
19 17 16 17 17 17 17 15 13 14 13 12 12 10 9 10 10 9 9 8 6 4 3 4 4 2 2 2 3 4 1 2 2 1 2 4 5 4 5 6 6 5 5 5 4 3 3 2 1 1 2 1
18 17 16 16 16 15 16 15 14 14 13 12 13 12 11 12 11 11 11 10 7 5 4 4 5 3 2 2 1 2 1 1 2 1 1 2 4 4 6 5 5 5 6 5 5 3 4 3 1 3 3 3
17 15 15 16 16 16 16 16 15 14 13 12 13 12 11 12 12 12 12 11 8 6 5 5 6 5 4 3 2 2 1 2 2 2 0 1 3 3 4 4 5 4 4 5 7 6 5 5 2 2 3 4
15 13 15 17 16 16 16 16 16 14 14 14 13 12 12 12 12 13 13 12 10 8 7 6 6 6 5 5 3 2 1 2 2 1 3 3 1 1 0 1 4 4 3 3 5 6 7 6 4 4 4 5
15 16 17 18 16 16 15 16 16 16 15 15 13 12 11 12 12 12 11 11 10 8 7 6 6 6 5 5 4 1 1 0 0 1 2 4 3 3 2 1 2 4 5 3 3 5 6 6 5 5 6 6
17 19 19 19 18 17 16 17 17 17 16 15 14 13 12 12 11 11 10 9 8 7 6 5 6 6 4 3 4 4 3 4 5 4 4 6 6 5 4 3 3 4 4 3 4 5 6 7 7 6 6 7
19 21 21 20 19 18 19 19 19 19 17 16 15 14 13 12 11 10 10 8 7 7 7 7 5 5 4 3 4 4 3 5 6 4 4 5 4 3 4 4 3 4 4 4 4 5 6 7 8 6 6 8
20 21 22 22 21 21 22 22 21 21 19 18 17 15 15 14 13 12 10 8 8 8 7 6 5 5 4 3 3 4 4 5 6 4 4 6 4 2 4 4 4 5 6 6 6 7 7 7 7 7 8 9
20 21 22 23 24 24 23 23 22 21 20 19 18 16 16 15 16 15 14 12 9 9 8 7 7 7 6 4 3 4 4 4 5 4 4 6 6 4 4 5 5 5 6 6 6 5 5 6 8 10 11 11
20 22 23 24 24 24 23 23 23 22 20 19 18 17 17 16 17 17 18 16 13 11 11 10 10 9 8 7 6 5 5 4 4 4 3 3 6 6 4 5 6 6 7 7 6 6 7 9 11 12 12 13
22 23 24 25 24 24 24 24 23 22 20 20 19 18 18 16 16 17 18 18 17 15 14 13 13 12 10 8 7 6 5 5 4 3 3 3 4 6 6 6 8 9 10 10 11 13 14 15 16 15 14 13
23 24 25 25 25 25 25 25 23 22 22 21 20 19 18 17 17 17 17 18 18 17 14 13 14 14 13 10 7 7 7 7 6 5 5 4 5 7 6 7 9 9 11 13 14 14 15 15 15 15 14 14
24 25 25 26 27 26 26 26 25 24 23 23 22 21 19 18 17 16 16 16 16 16 14 13 14 15 15 13 10 10 10 11 10 9 8 7 8 8 6 9 11 10 12 14 13 14 13 12 13 14 14 15
21 22 22 25 27 28 27 26 26 26 25 24 23 22 21 21 20 18 16 15 15 15 15 15 15 15 16 16 14 13 13 13 12 11 9 8 8 9 8 11 14 14 14 13 13 15 15 14 13 13 15 17
18 19 21 24 27 28 28 27 27 28 26 25 24 23 23 22 22 21 20 18 16 16 16 16 16 16 16 16 15 14 14 13 12 12 11 10 9 9 9 10 15 19 16 13 15 14 13 14 12 9 10 11
20 21 23 26 27 28 28 27 27 28 27 26 26 25 24 24 23 23 23 21 20 19 19 18 19 18 17 16 15 15 15 14 15 15 14 14 13 11 9 8 13 19 17 16 16 11 6 6 7 7 9 10
24 25 26 27 26 27 27 26 25 27 27 27 27 27 26 25 24 24 24 23 22 22 21 21 20 20 19 18 17 17 18 18 18 18 16 16 16 16 14 12 13 14 17 21 17 8 4 4 4 2 8 17
23 24 24 24 24 24 25 23 23 24 24 25 26 28 27 26 25 25 25 24 23 23 22 22 21 21 20 20 19 19 20 20 19 19 18 17 16 17 17 15 13 11 14 19 17 12 6 4 3 1 9 17
20 22 21 21 21 21 22 22 22 21 21 22 24 25 26 26 25 25 25 24 24 23 23 22 21 21 21 20 20 19 20 20 19 19 19 18 16 17 16 14 14 14 12 12 13 14 10 5 4 6 11 9
23 24 24 24 24 23 23 23 21 20 20 21 21 22 24 25 25 25 25 24 24 23 22 22 21 21 21 20 20 19 19 20 20 19 18 18 17 16 16 15 16 17 16 12 11 12 11 9 8 9 10 6
Wind_Direction
153 153 150 147 146 150 153 151 146 144 150 155 156 141 137 150 151 141 129 126 130 131 127 109 93 87 77 78 83 81 81 89 90 82 81 78 62 55 54 48 72 120 123 110 110 105 121 137 126 97 76 54
152 150 149 150 154 154 150 148 146 146 150 157 162 150 141 147 151 151 137 129 132 134 131 112 93 85 74 76 87 88 87 88 90 82 79 79 65 62 56 55 99 124 126 120 125 120 128 139 126 97 64 50
152 152 153 154 155 153 152 152 150 148 150 154 158 154 145 146 146 149 144 133 129 123 118 103 92 87 75 78 93 97 93 89 102 111 96 79 72 72 63 73 103 120 129 125 137 141 133 133 120 85 33 54
152 153 154 156 156 153 153 152 151 149 148 150 150 145 135 134 134 134 137 135 128 118 106 96 93 89 82 84 89 96 101 101 113 148 144 59 60 69 72 81 92 100 116 122 135 137 131 122 94 36 18 107
154 154 155 156 155 151 149 151 154 147 143 151 153 147 135 119 111 113 123 127 127 121 107 96 90 84 73 67 66 75 106 120 115 75 54 28 58 67 72 76 67 56 63 90 127 135 125 101 44 339 164 116
154 156 157 155 154 152 151 156 156 141 129 134 141 137 123 120 117 115 120 118 121 120 107 91 77 68 53 40 38 47 89 127 85 37 32 47 67 70 68 63 48 31 38 45 43 114 114 64 16 281 165 98
156 157 156 156 158 155 154 157 152 135 122 121 109 96 114 131 129 123 124 115 107 99 86 69 48 36 25 19 19 29 50 154 338 359 20 50 59 56 58 61 55 38 34 34 34 65 73 9 323 153 132 82
157 157 158 162 162 158 157 155 146 135 130 123 95 95 126 133 115 107 114 101 82 71 64 58 47 31 22 29 48 41 21 14 17 12 18 40 49 41 41 58 84 84 58 39 39 38 34 355 322 100 99 86
158 160 165 165 162 160 158 152 147 143 137 125 108 117 133 121 103 103 95 81 76 85 82 68 55 45 45 44 48 57 32 31 41 36 19 21 45 38 30 47 64 101 102 109 80 27 171 79 46 59 20 219
160 164 167 163 162 162 155 153 155 149 138 131 129 131 121 111 118 119 107 106 107 97 91 86 73 68 81 54 38 67 99 61 41 41 17 358 23 26 24 39 46 66 86 143 134 68 192 145 103 84 355 249
157 161 165 163 165 165 159 158 159 148 142 139 132 123 113 120 130 129 121 123 125 102 100 123 123 143 137 111 113 109 73 268 54 33 348 355 27 32 22 23 33 47 34 45 58 2 311 195 140 103 17 283
150 155 161 160 162 166 164 160 155 150 151 146 134 129 125 124 123 127 127 121 118 106 111 136 131 150 154 133 164 156 85 55 74 26 347 16 43 36 30 23 17 30 27 30 19 353 343 301 147 328 249 234
148 153 153 152 155 159 161 158 155 156 156 147 140 139 136 129 118 114 122 123 119 110 100 108 102 87 95 81 90 125 114 123 101 45 352 33 41 25 45 31 352 23 23 6 354 336 332 325 15 342 301 291
147 149 149 147 150 152 156 157 157 159 155 147 142 137 134 135 128 118 115 113 112 109 93 86 88 84 79 67 80 72 37 184 143 67 349 105 83 57 65 30 343 20 31 357 348 339 331 322 305 313 305 297
144 145 146 145 146 149 151 155 156 153 147 145 141 135 134 134 134 131 124 118 116 116 113 103 94 95 81 63 89 110 80 182 176 184 244 235 205 301 25 30 345 345 2 8 351 335 332 332 319 289 282 286
140 137 137 137 139 142 144 149 149 142 139 138 134 131 132 129 129 132 129 126 124 126 135 127 107 100 92 78 82 88 70 123 45 359 306 313 335 340 333 10 346 331 349 6 332 314 315 320 314 300 291 286
131 128 129 130 131 134 138 140 137 132 131 129 126 126 123 121 122 122 122 125 124 121 117 111 113 115 116 109 87 51 33 39 31 23 10 2 4 9 3 6 359 341 349 350 322 314 312 310 308 309 301 292
126 123 125 127 128 131 131 129 124 119 117 115 116 115 113 111 110 112 115 118 116 110 105 104 114 118 112 116 102 74 70 70 50 34 25 10 359 14 13 359 342 326 322 317 311 309 309 310 312 309 294 290
127 124 125 126 125 126 124 120 116 112 108 105 104 105 104 101 98 98 98 102 108 107 106 102 95 86 84 102 110 91 95 87 63 61 53 23 2 360 4 356 347 340 332 322 313 303 294 292 292 289 285 289
130 129 128 126 124 124 123 121 118 114 112 108 106 105 103 102 100 94 86 81 87 97 94 84 80 75 74 75 78 83 89 81 60 77 88 48 30 15 357 356 358 353 345 334 325 313 297 291 291 288 288 288
130 129 128 126 124 123 123 120 116 113 113 110 107 105 102 102 104 99 92 80 69 72 76 75 72 68 69 68 74 85 82 72 54 59 85 59 44 39 14 353 347 338 332 326 316 306 297 294 295 294 293 290
125 124 123 121 118 118 117 112 110 109 107 103 101 101 99 101 103 103 102 95 83 73 71 75 73 66 62 61 73 80 69 64 48 39 43 17 20 24 5 348 342 330 316 307 301 298 296 298 296 294 291 284
120 118 117 114 110 109 107 104 103 103 101 96 94 94 95 98 100 102 104 104 100 91 83 83 82 76 65 57 65 68 59 51 37 32 30 17 14 16 16 8 356 338 321 312 308 308 308 308 305 299 291 279
116 111 108 106 103 99 97 97 96 95 95 93 91 90 90 91 92 98 102 104 103 98 92 87 87 85 73 61 57 58 56 46 40 38 35 38 30 22 32 26 7 347 332 324 322 324 317 310 306 301 294 282
108 104 102 101 98 95 94 95 94 91 90 90 89 88 88 87 86 89 93 95 97 95 92 88 86 85 78 68 58 57 58 52 49 45 43 49 42 36 37 27 14 357 347 347 344 331 316 312 308 296 291 284
102 101 104 103 101 99 96 93 93 90 87 87 88 88 87 86 84 84 84 84 87 88 87 85 81 78 77 74 66 61 59 56 55 50 47 46 42 45 41 32 25 15 8 2 347 329 317 325 326 315 316 304
104 103 106 106 104 101 96 90 90 90 88 88 86 84 84 84 82 82 81 79 80 81 80 80 78 74 72 72 69 63 56 53 51 49 49 46 38 34 33 42 37 29 26 13 354 339 322 335 331 325 345 344
107 106 105 102 99 98 94 90 88 85 84 83 82 79 77 78 79 80 79 77 77 76 76 76 75 73 70 68 66 62 56 51 49 47 47 47 44 33 27 31 30 33 36 28 21 14 317 303 325 326 356 342
107 106 103 100 97 95 92 87 81 77 74 73 74 74 73 73 75 77 77 76 74 73 73 73 72 71 69 66 63 61 57 51 48 48 46 45 47 41 32 28 23 26 36 35 39 43 22 336 348 318 342 339
106 103 101 99 95 91 87 81 74 73 74 72 71 71 70 72 73 73 73 73 72 70 69 70 70 69 67 64 61 59 57 52 46 46 45 43 45 44 36 33 29 20 21 33 37 37 39 27 3 327 330 338
97 96 95 93 90 87 86 83 80 78 79 78 75 72 68 67 68 69 69 68 68 67 66 66 66 66 64 62 59 57 56 51 43 40 42 41 41 43 37 36 35 21 12 19 16 13 19 14 2 347 337 331
Height
832 834 835 837 838 839 841 842 844 845 846 847 848 849 851 852 852 853 854 855 856 856 856 856 857 858 858 859 860 861 861 862 862 862 861 861 861 860 860 859 859 860 861 861 862 862 862 862 862 862 863 863
832 833 835 837 838 839 841 842 844 845 847 847 849 849 851 852 853 854 854 855 856 856 856 857 857 858 859 860 861 861 862 862 862 862 861 861 861 861 861 860 860 860 861 861 862 862 863 863 863 863 863 864
832 833 835 836 838 839 841 843 844 846 847 848 849 850 851 852 853 854 854 855 856 856 857 857 858 859 860 861 862 862 862 863 862 862 862 862 861 861 861 861 861 861 861 862 862 863 863 863 864 864 864 864
832 833 835 836 838 839 841 843 845 847 848 849 850 850 851 852 853 854 855 855 856 857 858 858 859 860 860 861 862 862 863 863 862 862 863 862 862 861 862 862 862 862 862 862 862 863 863 864 865 865 865 865
831 833 835 837 838 839 842 844 846 847 848 849 850 851 851 852 853 854 855 856 857 858 859 859 860 860 861 862 862 863 863 863 863 863 863 863 863 862 863 863 863 863 863 863 863 863 864 865 865 866 866 866
831 834 835 837 838 840 842 844 846 847 848 850 850 851 851 852 853 854 856 857 858 858 859 860 860 861 862 862 862 863 863 863 864 864 864 864 863 863 863 863 863 864 864 864 864 864 865 866 866 866 866 867
831 833 835 837 838 840 842 844 846 847 849 849 850 851 851 852 853 855 856 857 858 859 860 860 861 861 862 862 863 863 863 864 864 864 865 864 864 864 864 864 864 864 865 865 865 866 866 866 866 867 867 868
831 833 835 837 838 840 842 844 846 847 848 850 851 851 852 853 854 855 856 858 859 859 860 860 861 861 862 862 863 863 864 864 865 865 865 864 864 864 864 864 864 865 865 866 866 867 867 867 867 867 868 868
831 833 835 836 838 840 842 844 846 847 848 850 851 851 852 853 854 855 856 858 859 860 860 860 861 862 862 862 863 864 864 865 865 865 865 865 865 865 865 865 865 865 866 866 867 867 867 867 867 868 868 868
831 833 834 836 838 841 842 844 845 847 849 850 851 852 852 853 854 855 857 858 859 860 861 861 862 862 863 863 864 865 865 865 866 866 866 865 865 865 865 865 866 866 866 867 867 866 867 867 867 868 868 868
831 833 835 836 838 841 842 844 845 847 848 850 850 852 853 854 855 855 856 858 859 860 861 861 862 863 863 864 865 865 866 865 866 866 866 866 866 866 866 866 866 866 867 867 867 867 867 867 867 867 868 868
832 833 835 836 839 841 842 844 845 846 848 849 850 851 853 853 855 855 856 858 860 860 861 862 862 863 864 864 865 865 866 866 866 866 866 866 866 866 866 866 867 867 867 867 867 867 866 867 867 867 868 868
832 833 835 837 839 841 842 843 844 845 847 848 849 851 852 853 854 855 856 858 860 861 862 863 863 864 864 865 865 865 866 866 866 866 866 866 866 866 866 867 867 867 867 867 867 867 866 866 867 867 868 868
832 833 835 837 839 840 841 842 843 845 846 848 850 851 852 853 854 855 857 858 860 861 862 863 864 864 865 865 866 866 866 865 866 866 865 865 866 866 866 867 867 867 867 867 867 867 866 867 867 867 868 868
832 833 835 837 838 839 840 841 843 844 846 848 850 851 853 854 854 855 856 858 859 861 862 863 863 864 865 865 865 865 865 865 865 865 865 865 865 866 866 866 866 866 867 867 867 867 867 867 867 867 868 868
832 833 835 836 837 838 840 841 843 844 846 848 850 851 853 854 855 855 857 858 859 860 862 862 863 864 864 864 865 865 866 866 866 865 865 865 866 866 866 866 866 866 866 866 867 867 867 867 867 867 867 867
831 832 833 835 836 838 840 842 843 845 847 848 850 852 853 854 855 856 857 858 859 861 862 862 863 863 864 865 865 866 866 866 866 866 866 866 866 866 866 866 866 866 866 866 866 866 866 866 867 867 867 867
830 831 833 835 837 839 841 842 843 845 847 849 850 852 853 854 855 856 857 858 860 861 861 862 863 863 864 865 865 865 865 866 866 866 867 866 866 866 866 867 867 866 866 866 866 866 866 866 866 866 866 866
831 832 833 836 838 839 841 842 844 846 848 849 851 852 853 855 856 857 858 859 860 860 861 862 862 863 864 864 865 865 865 865 865 865 866 866 866 866 866 866 866 866 866 866 866 866 866 866 866 865 865 865
832 833 834 836 837 839 841 842 844 846 848 849 851 852 853 855 856 857 858 859 860 860 861 862 862 863 864 864 865 865 865 865 865 865 866 866 866 866 866 866 865 866 865 865 865 865 865 865 865 865 865 865
833 834 835 837 838 839 841 842 844 846 848 849 851 852 854 855 856 857 858 859 860 861 862 862 863 863 864 864 865 865 865 865 865 866 866 866 866 866 866 866 865 865 865 864 864 864 864 865 864 864 864 864
835 835 836 838 840 840 841 843 845 847 848 850 852 853 854 856 857 857 858 859 860 861 862 863 863 864 864 864 864 865 865 866 866 866 866 866 867 867 867 867 866 866 865 864 864 864 864 864 864 863 863 863
836 837 838 839 841 842 843 845 847 848 849 851 853 854 855 856 857 858 859 859 860 861 862 863 863 864 864 864 864 865 865 866 866 866 867 867 867 867 867 867 867 866 865 864 864 863 863 863 862 862 861 861
838 838 840 841 842 844 846 847 848 849 851 852 854 855 856 857 858 859 859 860 860 860 861 863 864 864 864 864 864 865 865 866 866 866 867 867 867 867 867 868 867 866 865 864 863 862 862 861 861 860 860 859
840 840 842 843 844 846 848 849 850 851 853 854 855 856 857 857 858 859 860 860 861 861 862 863 864 864 864 865 865 865 866 866 867 867 867 867 867 867 867 867 867 866 865 864 863 861 860 860 860 859 859 858
842 843 843 844 846 848 850 851 852 853 855 855 856 857 857 858 859 860 861 861 862 862 863 863 864 864 865 865 866 866 867 867 867 867 867 867 867 867 868 868 868 867 866 866 865 863 860 859 858 857 857 857
843 845 845 846 848 849 850 853 854 855 856 857 857 858 859 860 860 861 861 862 863 863 864 864 864 865 866 866 867 867 867 867 867 868 868 867 868 868 868 868 869 869 868 868 866 864 863 862 860 858 857 857
844 846 847 848 850 851 852 855 856 857 858 859 859 860 860 861 862 862 862 863 864 864 865 865 865 866 867 867 868 868 868 868 868 869 869 869 869 868 868 869 869 870 870 869 867 866 866 864 862 861 861 860
846 847 848 850 851 853 854 856 858 858 860 861 861 862 862 863 864 864 864 865 865 866 866 866 866 867 867 868 869 869 869 870 870 870 870 870 870 870 870 870 870 870 870 871 870 870 871 869 868 867 867 865
846 847 849 850 852 854 855 857 859 861 862 863 864 865 865 866 866 866 866 867 867 867 867 867 868 868 868 869 869 870 870 871 871 872 872 872 872 872 872 872 871 871 871 871 872 872 874 875 875 873 871 869
847 848 850 851 853 855 857 858 861 864 865 866 867 867 868 868 868 868 868 868 868 869 869 869 869 869 869 870 870 871 871 872 873 873 873 874 873 873 873 873 873 873 872 872 872 873 874 875 875 874 873 872